SnugLite
1 43784U 18099AC 21063.45399186 .00000390 00000-0 40184-4 0 9993
2 43784 97.6721 135.9731 0015951 47.0518 313.2038 14.95579283122799
ITASat 1
1 43786U 18099AE 21063.46133935 .00000501 00000-0 50302-4 0 9991
2 43786 97.6776 136.5262 0016053 46.4464 313.8087 14.95522397122798
EAGLET 1
1 43790U 18099AJ 21063.45429709 .00000114 00000-0 15306-4 0 9997
2 43790 97.6765 136.8886 0014457 50.3681 309.8814 14.95897784122515
ESEO
1 43792U 18099AL 21063.15642208 .00000440 00000-0 44604-4 0 9992
2 43792 97.6739 136.2673 0014487 49.0075 311.2397 14.95697737122521
CSIM
1 43793U 18099AM 21063.16969377 .00000526 00000-0 51400-4 0 9990
2 43793 97.6760 136.5069 0013851 45.9840 314.2520 14.96412953122524
Astrocast 0.1
1 43798U 18099AS 21063.48405317 .00001054 00000-0 98816-4 0 9998
2 43798 97.6773 137.0772 0013039 32.6276 327.5749 14.96053861122826
JO-97
1 43803U 18099AX 21063.44172210 .00000183 00000-0 21505-4 0 9997
2 43803 97.6741 136.2731 0016102 46.3267 313.9285 14.95748229122798
Suomi 100
1 43804U 18099AY 21063.17777283 .00000153 00000-0 18871-4 0 9998
2 43804 97.6738 135.9892 0016154 47.0675 313.1898 14.95724127122767
Al Farabi 2
1 43805U 18099AZ 21063.52768744 .00000680 00000-0 65755-4 0 9998
2 43805 97.6737 136.5027 0015952 46.8937 313.3647 14.95908673122828
CHOMPTT
1 43855U 18104G 21063.31866883 .00002209 00000-0 90139-4 0 9993
2 43855 85.0406 3.1749 0017466 166.4486 193.7229 15.23651764123080
ISAT
1 43879U 18111D 21063.69159677 .00000778 00000-0 73466-4 0 9997
2 43879 97.6909 332.7692 0014510 93.1968 267.0942 14.96504640117381
UWE-4
1 43880U 18111E 21063.69632703 .00001226 00000-0 11210-3 0 9992
2 43880 97.6938 333.1880 0014013 94.2303 266.0520 14.96749449117415
Sparrow
1 43881U 18111F 21063.47022903 .00000569 00000-0 54673-4 0 9994
2 43881 97.6936 333.0783 0013723 92.8270 267.4522 14.96794645119382
Lume 1
1 43908U 18111AJ 21063.67780416 .00002473 00000-0 98953-4 0 9991
2 43908 97.2443 321.6951 0019291 305.8205 54.1241 15.25838408121697
FO-98
1 43933U 19003B 21063.09781810 .00015596 00000-0 63501-3 0 9995
2 43933 97.1966 108.5527 0018216 51.9298 308.3580 15.24420726118046
FO-99
1 43937U 19003F 21063.83154621 .00002766 00000-0 11182-3 0 9998
2 43937 97.1916 111.1520 0024138 27.6711 332.5807 15.25280932118313
Delphini 1
1 44030U 98067PW 21063.85548415 .00614355 19566-3 81706-3 0 9992
2 44030 51.6225 52.9297 0004289 81.1682 278.9816 16.06063212119589
MYSat 1
1 44045U 18092F 21063.43511468 .00008926 00000-0 23855-3 0 9992
2 44045 51.6373 218.2415 0010846 182.6698 177.4230 15.38804658115285
AstroCast 0.2
1 44083U 19018F 21063.66865542 .00002141 00000-0 96194-4 0 9993
2 44083 97.3865 126.6668 0012389 347.5227 12.5701 15.22165336106958
AISTechSat 3
1 44103U 19018AB 21063.80669154 .00001506 00000-0 65424-4 0 9999
2 44103 97.3732 127.1362 0012965 0.2254 93.6266 15.23765238107072
AISat 1
1 44104U 19018AC 21063.17680385 .00001933 00000-0 62611-4 0 9998
2 44104 97.4346 140.1409 0057444 11.6804 348.5755 15.31732684107556
Raavana-1
1 44329U 98067QE 21063.50097702 .00041621 00000-0 37087-3 0 9996
2 44329 51.6354 102.9421 0003573 277.5828 82.4763 15.68021318 97645
Uguisu
1 44330U 98067QF 21063.47296317 .00040996 00000-0 36923-3 0 9999
2 44330 51.6335 103.4381 0003559 276.6562 83.4029 15.67765150 97617
NepaliSat-1
1 44331U 98067QG 21063.49289477 .00041171 00000-0 36738-3 0 9991
2 44331 51.6330 102.8212 0003638 280.3963 79.6623 15.67990972 97635
Prox-1
1 44339U 19036A 21063.25556844 .00001284 00000-0 25297-3 0 9996
2 44339 23.9998 276.6725 0010666 112.4441 247.7181 14.53402245 89889
Oculus-ASR
1 44348U 19036K 21063.43064406 .00021357 00000-0 30099-3 0 9993
2 44348 28.5148 111.1316 0342775 212.7020 145.1913 15.08745485 93013
Armadillo
1 44352U 19036P 21063.41306348 .00032840 00000-0 44294-3 0 9991
2 44352 28.5311 96.9439 0318958 234.3086 122.7426 15.14491583 93108
NO-104
1 44354U 19036R 21063.49378926 .00022995 00000-0 31727-3 0 9999
2 44354 28.5305 105.3001 0338350 220.4332 137.0649 15.10097638 93072
NO-103
1 44355U 19036S 21063.33842461 .00049047 00000-0 59263-3 0 9995
2 44355 28.5298 76.4365 0291543 267.3925 89.3269 15.22214498 93351
CP9
1 44360U 19036X 21063.58219558 .00109273 -37160-5 95198-3 0 9991
2 44360 28.5101 31.5468 0238620 341.9404 17.2837 15.38928931 93682
Move-IIb
1 44398U 19038N 21063.78134649 .00002287 00000-0 13171-3 0 9998
2 44398 97.5700 28.3643 0023620 314.0934 45.8354 15.13228497 91934
SONATE
1 44400U 19038Q 21063.58461250 .00000798 00000-0 49609-4 0 9992
2 44400 97.5742 28.1129 0024024 313.7021 46.2214 15.12354338 91880
BeeSat 9
1 44412U 19038AC 21063.32347168 .00002046 00000-0 11927-3 0 9997
2 44412 97.5754 28.0571 0021292 319.9633 40.0027 15.12958021 91554
JAISAT-1
1 44419U 19038F 21063.32684554 .00002027 00000-0 11667-3 0 9997
2 44419 97.5758 28.5245 0020115 318.4685 41.5017 15.13442215 91898
LightSail-2
1 44420U 19036AC 21063.64119248 .00009460 00000-0 19350-2 0 9999
2 44420 24.0079 260.0643 0009918 137.9673 222.1581 14.58845778 88286
Taurus 1
1 44530U 19059C 21063.68657733 .00000836 00000-0 24747-3 0 9991
2 44530 98.5535 153.1587 0015565 102.0146 258.2795 14.45925260 77942
Duchifat 3
1 44854U 19089C 21063.24539980 .00000776 00000-0 68663-4 0 9997
2 44854 36.9694 2.7487 0008681 358.5612 1.5117 14.99355000 67302
OPS-SAT
1 44878U 19092F 21063.46659249 .00002442 00000-0 12965-3 0 9997
2 44878 97.4720 248.5176 0014168 168.4386 191.7175 15.16197823 66928
TO-108
1 44881U 19093C 21063.64059018 .00000077 00000-0 16706-4 0 9990
2 44881 97.9326 143.5777 0013506 273.9274 86.0401 14.81426169 65211
FloripaSat 1
1 44885U 19093G 21063.71942000 .00000385 00000-0 55000-4 0 9996
2 44885 97.9329 144.0900 0013201 282.4830 77.4915 14.82213784 65253
RS-44
1 44909U 19096E 21063.31526229 .00000038 00000-0 11060-3 0 9995
2 44909 82.5249 182.6594 0216882 339.2052 20.0324 12.79708651 55393
SwampSat-2
1 45115U 19071E 21063.78570783 .00039320 00000-0 81644-3 0 9994
2 45115 51.6371 174.0782 0009574 282.9406 77.0511 15.45248116 61214
HO-107
1 45119U 19071J 21063.43397695 .00004583 00000-0 14365-3 0 9998
2 45119 51.6410 185.8319 0011109 270.6738 89.2971 15.35025574 61032
Phoenix
1 45258U 98067RB 21063.46198191 .00011994 00000-0 18558-3 0 9999
2 45258 51.6398 133.4714 0005036 225.0248 135.0335 15.54502596 58867
AztechSat-1
1 45261U 98067RE 21063.46066246 .00029846 00000-0 37331-3 0 9993
2 45261 51.6378 128.2210 0005642 252.8309 107.2067 15.59535812 58967
QARMAN
1 45263U 98067RG 21063.69425138 .00020201 00000-0 27630-3 0 9996
2 45263 51.6387 129.7824 0005543 246.1845 113.8566 15.57397002 58992
Quetzal 1
1 45598U 98067RL 21063.23926797 .00020006 00000-0 28889-3 0 9994
2 45598 51.6399 135.0053 0002649 337.9096 22.1781 15.55944503 48151
BY70-2
1 45857U 20042B 21063.76629455 .00001268 00000-0 18818-3 0 9999
2 45857 97.9915 140.5972 0011853 182.5919 177.5239 14.76733331 36092
UPMSat 2
1 46276U 20061E 21063.36501105 .00000937 00000-0 51747-4 0 9994
2 46276 97.4422 139.2197 0002254 53.5694 306.5747 15.16305230 27616
